[[{"header":{"parameterUnit":"m.s-1","parameterCategory":1,"la1":30.2991,"la2":30.254,"lo1":-89.0895,"lo2":-89.0444,"dy":0.0017,"dx":0.0017,"nx":28,"ny":28,"refTime":"2025-07-08T21:00:00:Z","depth":0,"parameterNumber":2,"parameterNumberName":"U-component_of_WINDS"},"data":[0,0,0,0,0,0,0,0,0,0,0,0,0,0,0,0,0,0,0,0,0,0,0,0,0,0,0,0,0,0,0,0,0,0,0,0,0,0,0,0,0,0,0,0,0,0,0,0,0,0,0,0,0,0,0,0,0,0,4.162,4.1622,0,4.1779,4.178,4.1782,4.1772,4.1769,4.1767,4.1765,4.1927,4.1933,4.1939,0,0,0,0,0,0,0,0,0,0,0,0,0,4.1306,4.1312,4.162,4.1622,4.1624,4.1778,4.1781,4.1783,4.1772,4.1769,4.1766,4.1764,4.1925,4.1932,4.194,0,0,0,0,0,0,0,0,0,0,0,0,0,4.1451,4.1314,4.162,4.1637,4.164,4.1778,4.1781,4.1783,4.1773,4.1769,4.1766,4.1762,4.1922,4.1931,4.1941,4.2071,0,0,4.1971,4.1975,0,0,0,0,0,0,0,0,4.1443,4.1463,4.1633,4.1636,4.164,4.1752,4.1729,4.188,4.1774,4.1722,4.1765,4.1761,4.1871,4.1885,4.1922,4.2079,4.2086,4.1972,4.1978,4.1982,4.1984,0,0,0,0,0,0,0,4.1433,4.1456,4.1683,4.1635,4.164,4.1637,4.1653,4.1758,4.1815,4.1727,4.1726,4.1745,4.1873,4.1913,4.1926,4.2088,4.1971,4.198,4.1986,4.199,4.2356,4.236,0,0,0,0,0,0,4.1419,4.1447,4.1678,4.1687,4.1531,4.1645,4.1664,4.1719,4.1813,4.1824,4.1748,4.1744,4.1898,4.1915,4.1932,4.2088,4.1982,4.1991,4.1996,4.2352,4.2357,4.2361,0,0,0,0,0,0,4.1412,4.144,4.1671,4.1567,4.1597,4.1654,4.1717,4.1724,4.1765,4.183,4.1839,4.1779,4.1896,4.1918,4.2036,4.2093,4.1995,4.2004,4.2348,4.2354,4.2359,4.2402,0,0,0,0,0,0,4.1403,4.1437,4.1488,4.1569,4.1602,4.1773,4.172,4.173,4.1782,4.1778,4.1861,4.1872,4.1895,4.2021,4.2046,4.2105,4.2012,4.2343,4.235,4.2357,4.2395,4.2408,4.2419,0,0,0,0,0,4.1392,4.1494,4.149,4.1518,4.1667,4.1777,4.1796,4.1821,4.1786,4.1837,4.1878,4.1869,4.2084,4.2034,4.2061,4.2124,4.2339,4.2348,4.2357,4.239,4.2406,4.2419,0,0,0,0,0,0,4.1418,4.1505,4.1502,4.1633,4.1698,4.1775,4.1839,4.1837,4.1913,4.1906,4.1934,4.1953,4.207,4.211,4.2052,4.2253,4.2207,4.2221,4.2223,4.2238,4.225,4.2237,4.202,0,0,0,0,0,4.144,4.1522,4.1593,4.1702,4.1735,4.1782,4.183,4.1844,4.1912,4.1939,4.1989,4.2055,4.2137,4.219,4.227,4.2402,4.2418,4.2459,4.2471,4.248,4.2491,4.2561,4.2579,4.239,4.239,4.239,0,0,4.1484,4.1541,4.1592,4.1709,4.176,4.1844,4.1804,4.1895,4.1957,4.1953,4.2066,4.2106,4.2181,4.2305,4.2363,4.2342,4.2548,4.2491,4.2498,4.2505,4.2572,4.259,4.2606,4.2396,4.2395,4.2394,0,0,4.1606,4.166,4.1754,4.1807,4.1885,4.1916,4.1938,4.2016,4.2042,4.2156,4.2154,4.2228,4.237,4.2422,4.2468,4.2609,4.2602,4.2635,4.2696,4.2764,4.2778,4.2792,4.2839,4.2856,4.2646,4.2647,4.2647,0,4.1651,4.1777,4.1803,4.1894,4.1945,4.1945,4.204,4.209,4.219,4.2225,4.22,4.2375,4.2427,4.2562,4.2596,4.2635,4.266,4.2624,4.2774,4.2788,4.2801,4.2846,4.2864,4.265,4.2649,4.2649,4.2649,0,4.1827,4.1915,4.1982,4.2078,4.2136,4.2229,4.2268,4.2324,4.2333,4.2366,4.2481,4.2542,4.2633,4.2667,4.2677,4.2803,4.2787,4.2768,4.2722,4.2821,4.2864,4.2882,4.2654,4.2653,4.2652,4.2651,0,0,4.1969,4.2078,4.2102,4.2144,4.223,4.2298,4.2391,4.2479,4.2525,4.2595,4.2671,4.279,4.2773,4.2824,4.284,4.29,4.3004,4.2874,4.2876,4.2893,4.3144,4.3155,4.3175,4.3002,4.3005,4.3008,4.3137,0,4.2097,4.226,4.2286,4.2429,4.2509,4.251,4.259,4.2651,4.2684,4.2756,4.2793,4.2876,4.2848,4.2879,4.2939,4.2979,4.3055,4.2971,4.3071,4.3074,4.3048,4.3198,4.3211,4.3329,4.3154,4.3157,4.3159,0,4.2269,4.2341,4.2492,4.2566,4.26,4.2672,4.2753,4.2823,4.2892,4.2912,4.2969,4.2977,4.3071,4.3023,4.3152,4.3094,4.3137,4.3163,4.3169,4.3176,4.312,4.3206,4.3368,4.3384,4.3186,4.3184,4.3182,0,4.2352,4.2489,4.2596,4.2633,4.2722,4.2772,4.2811,4.2877,4.2927,4.2999,4.3032,4.3114,4.3158,4.3221,4.3251,4.3214,4.3377,4.3332,4.3394,4.3393,4.3426,4.3423,4.3593,4.346,4.3459,4.3459,4.3459,0,4.2491,4.2582,4.2634,4.2699,4.2801,4.283,4.293,4.2968,4.3026,4.3098,4.3106,4.3173,4.321,4.3282,4.3307,4.3408,4.3429,4.3446,4.3451,4.3444,4.3441,4.3469,4.3461,4.3464,4.3463,4.3462,4.3461,0,4.26,4.2639,4.2755,4.283,4.2851,4.2923,4.2986,4.3049,4.3082,4.3173,4.3196,4.3248,4.3333,4.337,4.3476,4.3492,4.3607,4.3608,4.3583,4.3584,4.3643,4.3635,4.3834,4.3861,4.3713,4.3715,4.3716,0,4.2684,4.2754,4.2837,4.2885,4.2926,4.3005,4.3056,4.3088,4.3141,4.3224,4.3276,4.3362,4.3432,4.3568,4.3615,4.3695,4.3695,4.376,4.3707,4.3697,4.3692,4.3686,4.3692,4.3768,4.377,4.3771,4.3772,0,4.2828,4.2844,4.2918,4.2999,4.306,4.3125,4.3188,4.3228,4.3269,4.3328,4.3415,4.3469,4.3577,4.3661,4.3744,4.3784,4.3784,4.3788,4.3806,4.3797,4.3779,4.3786,4.3605,4.3783,4.3782,4.3781,4.378,4.378,4.2925,4.2986,4.3053,4.3135,4.3186,4.3245,4.3307,4.3348,4.3421,4.351,4.3525,4.3617,4.3683,4.3794,4.3838,4.391,4.3893,4.392,4.3927,4.3932,4.3933,4.3771,4.3925,4.3925,4.3925,4.3925,4.3925,0,4.3066,4.3109,4.3185,4.3272,4.3336,4.3332,4.3402,4.3455,4.3536,4.3598,4.3666,4.3766,4.3847,4.39,4.3982,4.4029,4.4031,4.4049,4.4044,4.4053,4.3945,4.392,4.4046,4.4046,4.4046,4.4046,4.4046,4.4046,4.3147,4.3249,4.3272,4.3399,4.3442,4.3532,4.3572,4.3626,4.3675,4.3785,4.3852,4.3887,4.3944,4.403,4.4104,4.4118,4.4146,4.4164,4.4176,4.4074,4.4061,4.4049,4.4025,4.4171,4.4171,4.4278,4.4279,4.4279]},{"header":{"parameterUnit":"m.s-1","parameterCategory":1,"la1":30.2991,"la2":30.254,"lo1":-89.0895,"lo2":-89.0444,"dy":0.0017,"dx":0.0017,"nx":28,"ny":28,"refTime":"2025-07-08T21:00:00:Z","depth":0,"parameterNumber":3,"parameterNumberName":"V-component_of_WINDS"},"data":[0,0,0,0,0,0,0,0,0,0,0,0,0,0,0,0,0,0,0,0,0,0,0,0,0,0,0,0,0,0,0,0,0,0,0,0,0,0,0,0,0,0,0,0,0,0,0,0,0,0,0,0,0,0,0,0,0,0,1.7424,1.7426,0,1.7536,1.7537,1.7538,1.757,1.757,1.7569,1.7569,1.7681,1.7685,1.7688,0,0,0,0,0,0,0,0,0,0,0,0,0,1.7237,1.724,1.7424,1.7426,1.7427,1.7535,1.7537,1.7538,1.7571,1.757,1.7569,1.7568,1.768,1.7684,1.7688,0,0,0,0,0,0,0,0,0,0,0,0,0,1.733,1.7241,1.7424,1.7456,1.746,1.7535,1.7537,1.7539,1.7571,1.757,1.7569,1.7568,1.7679,1.7684,1.7689,1.7739,0,0,1.7705,1.7708,0,0,0,0,0,0,0,0,1.7325,1.7337,1.745,1.7454,1.7459,1.7538,1.7512,1.7606,1.7571,1.7529,1.7569,1.7568,1.7634,1.7643,1.7666,1.7745,1.7749,1.7706,1.7709,1.7711,1.7713,0,0,0,0,0,0,0,1.7318,1.7332,1.7468,1.7452,1.7457,1.7464,1.7476,1.753,1.7585,1.7532,1.7535,1.7548,1.7636,1.7661,1.7669,1.7751,1.7706,1.771,1.7714,1.7716,1.7874,1.7875,0,0,0,0,0,0,1.7307,1.7327,1.7465,1.7472,1.7388,1.7468,1.7482,1.7514,1.7585,1.7594,1.7548,1.7549,1.7652,1.7662,1.7673,1.7735,1.7711,1.7716,1.7719,1.7873,1.7874,1.7875,0,0,0,0,0,0,1.7302,1.7319,1.746,1.74,1.7419,1.7472,1.7508,1.7516,1.7541,1.7597,1.7606,1.7563,1.7652,1.7665,1.7722,1.7739,1.7719,1.7723,1.7872,1.7873,1.7875,1.7861,0,0,0,0,0,0,1.7297,1.7317,1.7338,1.74,1.7422,1.7509,1.7509,1.7519,1.755,1.7551,1.7613,1.7623,1.7652,1.7714,1.7727,1.7746,1.7727,1.787,1.7872,1.7874,1.786,1.7862,1.7863,0,0,0,0,0,1.729,1.733,1.7339,1.7355,1.7449,1.751,1.7522,1.7556,1.7551,1.7572,1.7607,1.7621,1.7735,1.7719,1.7735,1.7756,1.7869,1.7872,1.7874,1.7859,1.7861,1.7863,0,0,0,0,0,0,1.7268,1.7339,1.7349,1.741,1.7454,1.7515,1.7542,1.7557,1.7602,1.7602,1.7641,1.7655,1.7708,1.7738,1.7719,1.7807,1.7802,1.7808,1.7786,1.7788,1.779,1.7782,1.7732,0,0,0,0,0,1.727,1.7315,1.7373,1.7421,1.7443,1.7488,1.7516,1.7538,1.7585,1.7603,1.7643,1.7687,1.7732,1.7762,1.7807,1.7864,1.7877,1.7885,1.7887,1.7888,1.7892,1.7922,1.7926,1.7883,1.7883,1.7883,0,0,1.7275,1.7319,1.7345,1.7418,1.7454,1.7498,1.7504,1.7551,1.7583,1.761,1.7666,1.7696,1.7748,1.7804,1.7831,1.783,1.7907,1.7891,1.7891,1.7895,1.7925,1.7929,1.7933,1.7884,1.7884,1.7884,0,0,1.7307,1.7345,1.7389,1.7424,1.7479,1.7509,1.7519,1.7578,1.7599,1.7655,1.7676,1.7714,1.7793,1.7828,1.7856,1.7897,1.7911,1.7911,1.7919,1.7948,1.7951,1.7955,1.7968,1.7973,1.7915,1.7915,1.7915,0,1.7307,1.7375,1.7409,1.7454,1.7485,1.7511,1.7554,1.7587,1.7653,1.7673,1.7671,1.7768,1.7805,1.7869,1.7878,1.7901,1.7912,1.7905,1.7948,1.7952,1.7955,1.7969,1.7974,1.7915,1.7915,1.7915,1.7915,0,1.737,1.7417,1.7445,1.7508,1.7542,1.7586,1.7625,1.7655,1.7673,1.7702,1.7758,1.7802,1.7856,1.7873,1.7891,1.7938,1.7936,1.7941,1.7937,1.7958,1.7972,1.7977,1.7914,1.7914,1.7914,1.7914,0,0,1.7394,1.7473,1.7483,1.7511,1.7571,1.7607,1.7651,1.7704,1.7728,1.7772,1.7809,1.7873,1.7877,1.7908,1.7931,1.7956,1.7984,1.7957,1.7959,1.796,1.8037,1.8033,1.8038,1.7992,1.7994,1.7995,1.8032,0,1.7432,1.7513,1.7544,1.7609,1.7651,1.7675,1.7712,1.7753,1.7781,1.7819,1.785,1.7894,1.7897,1.7916,1.7942,1.7975,1.8,1.7973,1.8026,1.8028,1.8013,1.8045,1.8042,1.8075,1.8037,1.8038,1.8039,0,1.749,1.7533,1.7603,1.7656,1.7675,1.7708,1.7758,1.7795,1.784,1.7858,1.7892,1.7912,1.7957,1.795,1.8012,1.7992,1.8016,1.8035,1.8037,1.8044,1.8035,1.8052,1.8087,1.8092,1.8048,1.8047,1.8046,0,1.7498,1.7574,1.7625,1.7648,1.7712,1.7735,1.7762,1.7807,1.7835,1.7878,1.7896,1.7943,1.7969,1.8004,1.8035,1.8028,1.8094,1.8089,1.8109,1.8108,1.8122,1.8121,1.8161,1.8138,1.8137,1.8137,1.8137,0,1.7538,1.758,1.763,1.7661,1.7707,1.7741,1.7785,1.7814,1.7853,1.7889,1.7911,1.7944,1.7984,1.8022,1.8046,1.8092,1.8104,1.8119,1.8125,1.8117,1.8115,1.8133,1.8131,1.8139,1.8138,1.8138,1.8138,0,1.7556,1.7592,1.7649,1.7703,1.7718,1.7749,1.7796,1.7826,1.7854,1.7899,1.7911,1.7955,1.8,1.8034,1.8093,1.8109,1.8158,1.8165,1.8143,1.8146,1.8163,1.8161,1.8216,1.8225,1.8195,1.8196,1.8196,0,1.758,1.7612,1.767,1.7696,1.7723,1.7764,1.7793,1.7827,1.7856,1.7908,1.7931,1.7978,1.8018,1.8088,1.8124,1.8169,1.8176,1.8192,1.8183,1.8173,1.8175,1.8173,1.8176,1.8194,1.8194,1.8194,1.8194,0,1.7617,1.7633,1.7674,1.7721,1.7754,1.7793,1.7832,1.7851,1.7891,1.7922,1.7969,1.7999,1.8058,1.8104,1.8151,1.8178,1.8192,1.8196,1.8203,1.8195,1.8181,1.8188,1.8146,1.8195,1.8195,1.8195,1.8195,1.8195,1.7639,1.7667,1.7712,1.7756,1.7789,1.7824,1.7854,1.7885,1.7925,1.7976,1.7993,1.804,1.8082,1.8147,1.8174,1.821,1.8211,1.8221,1.8223,1.8225,1.8224,1.8175,1.8219,1.8219,1.8219,1.8219,1.8219,0,1.7677,1.7706,1.7746,1.7799,1.7833,1.7844,1.7886,1.7914,1.7956,1.7993,1.8031,1.8083,1.8126,1.8165,1.821,1.8231,1.8239,1.8242,1.8241,1.8246,1.8222,1.8211,1.8235,1.8235,1.8235,1.8235,1.8235,1.8235,1.77,1.7749,1.7769,1.7833,1.7862,1.7909,1.7932,1.7963,1.7994,1.8051,1.8087,1.8112,1.8149,1.8197,1.8236,1.8246,1.8261,1.8263,1.8274,1.825,1.8248,1.8246,1.8237,1.8266,1.8266,1.8296,1.8296,1.8296]}]]